Time,TemperatureF,DewpointF,PressureIn,WindDirection,WindDirectionDegrees,WindSpeedMPH,WindSpeedGustMPH,Humidity,HourlyPrecipIn,Conditions,Clouds,dailyrainin,SoftwareType,DateUTC
2013-03-08 00:03:00,36.0,23.5,30.28,ENE,67,0.0,0.0,60,0.00,,,0.00,WUHU21623XXSP,2013-03-08 06:03:00,
2013-03-08 00:08:00,36.0,23.5,30.28,ENE,67,1.3,1.3,60,0.00,,,0.00,WUHU21623XXSP,2013-03-08 06:08:00,
2013-03-08 00:12:00,35.8,23.3,30.28,ENE,67,2.2,2.2,60,0.00,,,0.00,WUHU21623XXSP,2013-03-08 06:12:00,
2013-03-08 00:18:00,35.6,23.2,30.28,ENE,67,1.8,2.2,60,0.00,,,0.00,WUHU21623XXSP,2013-03-08 06:18:00,
2013-03-08 00:23:00,35.4,23.0,30.28,ENE,67,1.6,1.8,60,0.00,,,0.00,WUHU21623XXSP,2013-03-08 06:23:00,
2013-03-08 00:28:00,35.2,23.2,30.28,ENE,67,1.8,1.8,61,0.00,,,0.00,WUHU21623XXSP,2013-03-08 06:28:00,
2013-03-08 00:33:00,35.2,23.2,30.28,ENE,67,1.6,2.7,61,0.00,,,0.00,WUHU21623XXSP,2013-03-08 06:33:00,
2013-03-08 00:38:00,35.2,23.5,30.28,ENE,67,1.3,2.7,62,0.00,,,0.00,WUHU21623XXSP,2013-03-08 06:38:00,
2013-03-08 00:42:00,35.2,23.5,30.28,ENE,67,0.9,1.3,62,0.00,,,0.00,WUHU21623XXSP,2013-03-08 06:42:00,
2013-03-08 00:47:00,35.2,23.5,30.28,ENE,67,0.0,2.0,62,0.00,,,0.00,WUHU21623XXSP,2013-03-08 06:47:00,
2013-03-08 00:52:00,35.2,23.5,30.28,ENE,67,0.0,2.0,62,0.00,,,0.00,WUHU21623XXSP,2013-03-08 06:52:00,
2013-03-08 00:57:00,35.1,23.4,30.28,ENE,67,0.0,0.0,62,0.00,,,0.00,WUHU21623XXSP,2013-03-08 06:57:00,
2013-03-08 01:02:00,35.1,23.4,30.28,ENE,67,2.2,2.2,62,0.00,,,0.00,WUHU21623XXSP,2013-03-08 07:02:00,
2013-03-08 01:07:00,34.9,23.2,30.29,ENE,67,1.6,2.2,62,0.00,,,0.00,WUHU21623XXSP,2013-03-08 07:07:00,
2013-03-08 01:12:00,34.9,23.2,30.29,ENE,67,0.0,1.8,62,0.00,,,0.00,WUHU21623XXSP,2013-03-08 07:12:00,
2013-03-08 01:17:00,34.9,23.5,30.29,ENE,67,0.0,1.8,63,0.00,,,0.00,WUHU21623XXSP,2013-03-08 07:17:00,
2013-03-08 01:22:00,34.7,23.4,30.29,ENE,67,1.8,2.0,63,0.00,,,0.00,WUHU21623XXSP,2013-03-08 07:22:00,
2013-03-08 01:27:00,34.7,23.4,30.29,ENE,67,0.0,2.0,63,0.00,,,0.00,WUHU21623XXSP,2013-03-08 07:27:00,
2013-03-08 01:32:00,34.7,23.4,30.29,ENE,67,0.0,2.0,63,0.00,,,0.00,WUHU21623XXSP,2013-03-08 07:32:00,
2013-03-08 01:37:00,34.7,23.4,30.29,ENE,67,0.0,2.0,63,0.00,,,0.00,WUHU21623XXSP,2013-03-08 07:37:00,
2013-03-08 01:42:00,34.5,22.8,30.29,ENE,67,1.6,1.6,62,0.00,,,0.00,WUHU21623XXSP,2013-03-08 07:42:00,
2013-03-08 01:47:00,34.5,23.2,30.29,ENE,67,1.6,1.6,63,0.00,,,0.00,WUHU21623XXSP,2013-03-08 07:47:00,
2013-03-08 01:52:00,34.3,23.0,30.29,ENE,67,0.0,1.6,63,0.00,,,0.00,WUHU21623XXSP,2013-03-08 07:52:00,
2013-03-08 01:57:00,34.3,23.0,30.29,ENE,67,0.0,0.0,63,0.00,,,0.00,WUHU21623XXSP,2013-03-08 07:57:00,
2013-03-08 02:02:00,34.3,23.0,30.29,ENE,67,0.0,0.0,63,0.00,,,0.00,WUHU21623XXSP,2013-03-08 08:02:00,
2013-03-08 02:07:00,34.2,22.8,30.30,ENE,67,0.0,0.0,63,0.00,,,0.00,WUHU21623XXSP,2013-03-08 08:07:00,
2013-03-08 02:12:00,34.0,22.6,30.30,ENE,67,0.0,0.0,63,0.00,,,0.00,WUHU21623XXSP,2013-03-08 08:12:00,
2013-03-08 02:17:00,34.0,22.6,30.30,ENE,67,0.0,0.0,63,0.00,,,0.00,WUHU21623XXSP,2013-03-08 08:17:00,
2013-03-08 02:23:00,34.0,22.6,30.30,ENE,67,0.0,1.6,63,0.00,,,0.00,WUHU21623XXSP,2013-03-08 08:23:00,
2013-03-08 02:28:00,33.6,22.3,30.29,ENE,67,0.0,1.6,63,0.00,,,0.00,WUHU21623XXSP,2013-03-08 08:28:00,
2013-03-08 02:33:00,33.6,22.3,30.29,ENE,67,0.0,0.0,63,0.00,,,0.00,WUHU21623XXSP,2013-03-08 08:33:00,
2013-03-08 02:38:00,33.4,22.1,30.29,ENE,67,0.0,0.0,63,0.00,,,0.00,WUHU21623XXSP,2013-03-08 08:38:00,
2013-03-08 02:43:00,33.4,22.1,30.29,ENE,67,0.0,0.0,63,0.00,,,0.00,WUHU21623XXSP,2013-03-08 08:43:00,
2013-03-08 02:48:00,33.4,22.1,30.29,ENE,67,0.0,0.0,63,0.00,,,0.00,WUHU21623XXSP,2013-03-08 08:48:00,
2013-03-08 02:53:00,33.3,22.0,30.29,ENE,67,0.0,0.0,63,0.00,,,0.00,WUHU21623XXSP,2013-03-08 08:53:00,
2013-03-08 02:58:00,33.3,22.0,30.29,ENE,67,0.0,0.0,63,0.00,,,0.00,WUHU21623XXSP,2013-03-08 08:58:00,
2013-03-08 03:03:00,33.1,21.8,30.29,ENE,67,0.0,0.0,63,0.00,,,0.00,WUHU21623XXSP,2013-03-08 09:03:00,
2013-03-08 03:08:00,32.9,21.6,30.29,ENE,67,0.0,0.0,63,0.00,,,0.00,WUHU21623XXSP,2013-03-08 09:08:00,
2013-03-08 03:13:00,32.9,21.6,30.29,ENE,67,1.6,2.0,63,0.00,,,0.00,WUHU21623XXSP,2013-03-08 09:13:00,
2013-03-08 03:18:00,32.7,21.8,30.29,ENE,67,2.7,2.7,64,0.00,,,0.00,WUHU21623XXSP,2013-03-08 09:18:00,
2013-03-08 03:23:00,32.7,22.2,30.28,ENE,67,1.3,2.7,65,0.00,,,0.00,WUHU21623XXSP,2013-03-08 09:23:00,
2013-03-08 03:28:00,32.7,22.6,30.28,ENE,67,1.1,1.8,66,0.00,,,0.00,WUHU21623XXSP,2013-03-08 09:28:00,
2013-03-08 03:33:00,32.7,22.6,30.29,ENE,67,1.3,1.8,66,0.00,,,0.00,WUHU21623XXSP,2013-03-08 09:33:00,
2013-03-08 03:38:00,32.9,22.7,30.28,ENE,67,2.2,2.2,66,0.00,,,0.00,WUHU21623XXSP,2013-03-08 09:38:00,
2013-03-08 03:43:00,32.7,22.6,30.29,ENE,67,0.9,2.2,66,0.00,,,0.00,WUHU21623XXSP,2013-03-08 09:43:00,
2013-03-08 03:48:00,32.7,22.9,30.29,ENE,67,1.8,1.8,67,0.00,,,0.00,WUHU21623XXSP,2013-03-08 09:48:00,
2013-03-08 03:53:00,32.9,23.1,30.29,ENE,67,1.6,1.8,67,0.00,,,0.00,WUHU21623XXSP,2013-03-08 09:53:00,
2013-03-08 03:58:00,32.7,22.9,30.29,ENE,67,2.7,2.7,67,0.00,,,0.00,WUHU21623XXSP,2013-03-08 09:58:00,
2013-03-08 04:03:00,32.7,22.9,30.29,ENE,67,2.5,2.7,67,0.00,,,0.00,WUHU21623XXSP,2013-03-08 10:03:00,
2013-03-08 04:08:00,32.7,22.9,30.29,ENE,67,0.9,2.5,67,0.00,,,0.00,WUHU21623XXSP,2013-03-08 10:08:00,
2013-03-08 04:13:00,32.7,22.9,30.29,ENE,67,0.0,0.9,67,0.00,,,0.00,WUHU21623XXSP,2013-03-08 10:13:00,
2013-03-08 04:18:00,32.7,22.9,30.29,ENE,67,0.0,0.0,67,0.00,,,0.00,WUHU21623XXSP,2013-03-08 10:18:00,
2013-03-08 04:23:00,32.5,22.8,30.29,ENE,67,1.8,1.8,67,0.00,,,0.00,WUHU21623XXSP,2013-03-08 10:23:00,
2013-03-08 04:27:00,32.4,23.0,30.28,ENE,67,2.0,2.2,68,0.00,,,0.00,WUHU21623XXSP,2013-03-08 10:27:00,
2013-03-08 04:32:00,32.4,23.0,30.29,East,90,2.2,2.2,68,0.00,,,0.00,WUHU21623XXSP,2013-03-08 10:32:00,
2013-03-08 04:37:00,32.5,23.1,30.29,ENE,67,2.5,2.5,68,0.00,,,0.00,WUHU21623XXSP,2013-03-08 10:37:00,
2013-03-08 04:42:00,32.4,23.3,30.29,East,90,1.6,2.5,69,0.00,,,0.00,WUHU21623XXSP,2013-03-08 10:42:00,
2013-03-08 04:47:00,32.4,23.3,30.29,ENE,67,0.9,2.2,69,0.00,,,0.00,WUHU21623XXSP,2013-03-08 10:47:00,
2013-03-08 04:52:00,32.4,23.3,30.29,East,90,1.3,1.3,69,0.00,,,0.00,WUHU21623XXSP,2013-03-08 10:52:00,
2013-03-08 04:57:00,32.4,23.3,30.29,East,90,2.5,2.5,69,0.00,,,0.00,WUHU21623XXSP,2013-03-08 10:57:00,
2013-03-08 05:02:00,32.2,23.2,30.29,East,90,2.0,2.5,69,0.00,,,0.00,WUHU21623XXSP,2013-03-08 11:02:00,
2013-03-08 05:07:00,32.2,23.2,30.30,ESE,112,0.0,2.0,69,0.00,,,0.00,WUHU21623XXSP,2013-03-08 11:07:00,
2013-03-08 05:12:00,32.2,23.2,30.30,ESE,112,0.0,2.2,69,0.00,,,0.00,WUHU21623XXSP,2013-03-08 11:12:00,
2013-03-08 05:17:00,32.2,23.2,30.30,ESE,112,0.0,2.2,69,0.00,,,0.00,WUHU21623XXSP,2013-03-08 11:17:00,
2013-03-08 05:22:00,32.2,23.2,30.30,ESE,112,0.0,0.0,69,0.00,,,0.00,WUHU21623XXSP,2013-03-08 11:22:00,
2013-03-08 05:27:00,32.2,23.2,30.30,ESE,112,2.5,2.5,69,0.00,,,0.00,WUHU21623XXSP,2013-03-08 11:27:00,
2013-03-08 05:32:00,32.0,23.4,30.31,ESE,112,1.8,2.5,70,0.00,,,0.00,WUHU21623XXSP,2013-03-08 11:32:00,
2013-03-08 05:37:00,31.8,23.2,30.31,ESE,112,0.0,1.8,70,0.00,,,0.00,WUHU21623XXSP,2013-03-08 11:37:00,
2013-03-08 05:42:00,31.8,23.2,30.31,ESE,112,0.0,0.4,70,0.00,,,0.00,WUHU21623XXSP,2013-03-08 11:42:00,
2013-03-08 05:47:00,31.6,23.0,30.31,ESE,112,0.0,0.0,70,0.00,,,0.00,WUHU21623XXSP,2013-03-08 11:47:00,
2013-03-08 05:52:00,31.5,22.5,30.32,SE,135,0.0,0.0,69,0.00,,,0.00,WUHU21623XXSP,2013-03-08 11:52:00,
2013-03-08 05:57:00,31.1,22.1,30.32,SE,135,0.0,0.0,69,0.00,,,0.00,WUHU21623XXSP,2013-03-08 11:57:00,
2013-03-08 06:02:00,30.9,21.9,30.32,ESE,112,0.0,0.0,69,0.00,,,0.00,WUHU21623XXSP,2013-03-08 12:02:00,
2013-03-08 06:07:00,30.9,21.9,30.32,East,90,0.9,0.9,69,0.00,,,0.00,WUHU21623XXSP,2013-03-08 12:07:00,
2013-03-08 06:12:00,30.7,21.7,30.33,East,90,0.0,0.9,69,0.00,,,0.00,WUHU21623XXSP,2013-03-08 12:12:00,
2013-03-08 06:17:00,30.6,21.6,30.33,East,90,1.1,1.1,69,0.00,,,0.00,WUHU21623XXSP,2013-03-08 12:17:00,
2013-03-08 06:22:00,30.6,21.6,30.33,East,90,0.0,1.1,69,0.00,,,0.00,WUHU21623XXSP,2013-03-08 12:22:00,
2013-03-08 06:27:00,30.4,21.4,30.33,East,90,0.0,0.0,69,0.00,,,0.00,WUHU21623XXSP,2013-03-08 12:27:00,
2013-03-08 06:32:00,30.4,21.4,30.33,East,90,0.0,0.0,69,0.00,,,0.00,WUHU21623XXSP,2013-03-08 12:32:00,
2013-03-08 06:38:00,30.4,21.4,30.33,East,90,0.0,0.0,69,0.00,,,0.00,WUHU21623XXSP,2013-03-08 12:38:00,
2013-03-08 06:42:00,30.2,21.2,30.33,East,90,0.0,0.0,69,0.00,,,0.00,WUHU21623XXSP,2013-03-08 12:42:00,
2013-03-08 06:47:00,30.2,21.2,30.33,East,90,0.0,0.0,69,0.00,,,0.00,WUHU21623XXSP,2013-03-08 12:47:00,
2013-03-08 06:52:00,30.4,21.7,30.33,East,90,0.0,0.0,70,0.00,,,0.00,WUHU21623XXSP,2013-03-08 12:52:00,
2013-03-08 06:58:00,30.6,21.9,30.34,East,90,0.0,0.0,70,0.00,,,0.00,WUHU21623XXSP,2013-03-08 12:58:00,
2013-03-08 07:03:00,30.9,22.3,30.34,East,90,0.0,0.0,70,0.00,,,0.00,WUHU21623XXSP,2013-03-08 13:03:00,
2013-03-08 07:08:00,31.6,23.3,30.35,ESE,112,2.5,2.5,71,0.00,,,0.00,WUHU21623XXSP,2013-03-08 13:08:00,
2013-03-08 07:13:00,32.5,24.5,30.35,SE,135,0.0,2.5,72,0.00,,,0.00,WUHU21623XXSP,2013-03-08 13:13:00,
2013-03-08 07:18:00,33.1,25.3,30.35,SE,135,2.2,2.2,73,0.00,,,0.00,WUHU21623XXSP,2013-03-08 13:18:00,
2013-03-08 07:23:00,34.0,26.5,30.35,ESE,112,1.3,2.5,74,0.00,,,0.00,WUHU21623XXSP,2013-03-08 13:23:00,
2013-03-08 07:28:00,34.7,27.5,30.36,SE,135,1.1,6.0,75,0.00,,,0.00,WUHU21623XXSP,2013-03-08 13:28:00,
2013-03-08 07:33:00,35.6,28.4,30.36,SE,135,0.0,6.0,75,0.00,,,0.00,WUHU21623XXSP,2013-03-08 13:33:00,
2013-03-08 07:38:00,36.0,28.6,30.37,SE,135,2.2,2.2,75,0.00,,,0.00,WUHU21623XXSP,2013-03-08 13:38:00,
2013-03-08 07:43:00,36.5,29.3,30.37,SE,135,3.4,3.4,75,0.00,,,0.00,WUHU21623XXSP,2013-03-08 13:43:00,
2013-03-08 07:48:00,37.2,29.7,30.37,ENE,67,1.8,9.4,74,0.00,,,0.00,WUHU21623XXSP,2013-03-08 13:48:00,
2013-03-08 07:53:00,37.9,30.4,30.37,ESE,112,5.1,9.4,74,0.00,,,0.00,WUHU21623XXSP,2013-03-08 13:53:00,
2013-03-08 07:58:00,38.3,30.4,30.37,SE,135,3.1,5.1,73,0.00,,,0.00,WUHU21623XXSP,2013-03-08 13:58:00,
2013-03-08 08:03:00,39.2,30.9,30.38,ESE,112,4.7,4.7,72,0.00,,,0.00,WUHU21623XXSP,2013-03-08 14:03:00,
2013-03-08 08:08:00,39.6,31.2,30.38,ESE,112,3.1,4.7,72,0.00,,,0.00,WUHU21623XXSP,2013-03-08 14:08:00,
2013-03-08 08:13:00,40.1,31.4,30.38,ESE,112,3.8,4.5,71,0.00,,,0.00,WUHU21623XXSP,2013-03-08 14:13:00,
2013-03-08 08:18:00,41.0,32.0,30.38,ESE,112,4.9,4.9,70,0.00,,,0.00,WUHU21623XXSP,2013-03-08 14:18:00,
2013-03-08 08:23:00,41.5,32.5,30.38,SSE,157,6.7,6.7,70,0.00,,,0.00,WUHU21623XXSP,2013-03-08 14:23:00,
2013-03-08 08:28:00,41.9,32.5,30.37,ESE,112,3.1,6.7,69,0.00,,,0.00,WUHU21623XXSP,2013-03-08 14:28:00,
2013-03-08 08:33:00,43.0,32.8,30.38,SE,135,3.4,6.7,67,0.00,,,0.00,WUHU21623XXSP,2013-03-08 14:33:00,
2013-03-08 08:38:00,43.5,32.9,30.37,SE,135,5.8,7.2,66,0.00,,,0.00,WUHU21623XXSP,2013-03-08 14:38:00,
2013-03-08 08:43:00,43.9,32.5,30.36,ESE,112,6.0,7.2,64,0.00,,,0.00,WUHU21623XXSP,2013-03-08 14:43:00,
2013-03-08 08:48:00,44.8,32.9,30.36,SE,135,4.5,8.3,63,0.00,,,0.00,WUHU21623XXSP,2013-03-08 14:48:00,
2013-03-08 08:53:00,45.1,33.3,30.36,ESE,112,4.0,8.3,63,0.00,,,0.00,WUHU21623XXSP,2013-03-08 14:53:00,
2013-03-08 08:58:00,45.7,33.4,30.35,ENE,67,0.0,4.0,62,0.00,,,0.00,WUHU21623XXSP,2013-03-08 14:58:00,
2013-03-08 09:03:00,46.8,34.4,30.35,SE,135,2.2,5.1,62,0.00,,,0.00,WUHU21623XXSP,2013-03-08 15:03:00,
2013-03-08 09:08:00,47.3,34.5,30.35,ESE,112,3.6,5.1,61,0.00,,,0.00,WUHU21623XXSP,2013-03-08 15:08:00,
2013-03-08 09:13:00,47.8,34.2,30.35,ESE,112,4.7,4.7,59,0.00,,,0.00,WUHU21623XXSP,2013-03-08 15:13:00,
2013-03-08 09:18:00,48.7,35.1,30.34,ENE,67,0.0,4.7,59,0.00,,,0.00,WUHU21623XXSP,2013-03-08 15:18:00,
2013-03-08 09:23:00,49.3,35.6,30.34,ENE,67,4.3,4.3,59,0.00,,,0.00,WUHU21623XXSP,2013-03-08 15:23:00,
2013-03-08 09:28:00,50.2,35.0,30.34,ENE,67,2.2,4.3,56,0.00,,,0.00,WUHU21623XXSP,2013-03-08 15:28:00,
2013-03-08 09:33:00,50.7,35.5,30.35,SE,135,2.5,4.3,56,0.00,,,0.00,WUHU21623XXSP,2013-03-08 15:33:00,
2013-03-08 09:38:00,50.7,35.1,30.35,East,90,0.0,4.3,55,0.00,,,0.00,WUHU21623XXSP,2013-03-08 15:38:00,
2013-03-08 09:43:00,51.3,34.7,30.35,NE,45,1.6,4.9,53,0.00,,,0.00,WUHU21623XXSP,2013-03-08 15:43:00,
2013-03-08 09:48:00,51.4,34.8,30.35,East,90,3.6,4.9,53,0.00,,,0.00,WUHU21623XXSP,2013-03-08 15:48:00,
2013-03-08 09:53:00,52.0,34.9,30.34,ENE,67,2.2,3.6,52,0.00,,,0.00,WUHU21623XXSP,2013-03-08 15:53:00,
2013-03-08 09:58:00,52.5,34.9,30.34,East,90,3.4,6.9,51,0.00,,,0.00,WUHU21623XXSP,2013-03-08 15:58:00,
2013-03-08 10:03:00,53.1,34.4,30.34,ENE,67,0.0,6.9,49,0.00,,,0.00,WUHU21623XXSP,2013-03-08 16:03:00,
2013-03-08 10:08:00,53.1,34.4,30.33,ESE,112,4.0,4.3,49,0.00,,,0.00,WUHU21623XXSP,2013-03-08 16:08:00,
2013-03-08 10:13:00,53.6,34.3,30.33,East,90,2.0,10.1,48,0.00,,,0.00,WUHU21623XXSP,2013-03-08 16:13:00,
2013-03-08 10:18:00,54.0,34.1,30.33,SE,135,5.4,10.1,47,0.00,,,0.00,WUHU21623XXSP,2013-03-08 16:18:00,
2013-03-08 10:23:00,54.5,34.6,30.33,East,90,4.0,7.8,47,0.00,,,0.00,WUHU21623XXSP,2013-03-08 16:23:00,
2013-03-08 10:28:00,55.0,34.5,30.34,ESE,112,0.0,5.8,46,0.00,,,0.00,WUHU21623XXSP,2013-03-08 16:28:00,
2013-03-08 10:33:00,55.2,34.1,30.33,SE,135,4.3,5.8,45,0.00,,,0.00,WUHU21623XXSP,2013-03-08 16:33:00,
2013-03-08 10:38:00,55.6,34.4,30.33,ENE,67,2.9,5.8,45,0.00,,,0.00,WUHU21623XXSP,2013-03-08 16:38:00,
2013-03-08 10:43:00,56.1,34.8,30.33,ENE,67,0.0,4.7,45,0.00,,,0.00,WUHU21623XXSP,2013-03-08 16:43:00,
2013-03-08 10:48:00,56.5,34.1,30.33,NNE,22,0.0,3.6,43,0.00,,,0.00,WUHU21623XXSP,2013-03-08 16:48:00,
2013-03-08 10:53:00,56.3,33.4,30.34,NNE,22,1.1,1.1,42,0.00,,,0.00,WUHU21623XXSP,2013-03-08 16:53:00,
2013-03-08 10:58:00,56.7,33.7,30.34,ENE,67,0.0,2.2,42,0.00,,,0.00,WUHU21623XXSP,2013-03-08 16:58:00,
2013-03-08 11:03:00,56.8,33.9,30.34,NNE,22,0.0,2.2,42,0.00,,,0.00,WUHU21623XXSP,2013-03-08 17:03:00,
2013-03-08 11:08:00,57.0,33.5,30.34,SE,135,1.8,3.1,41,0.00,,,0.00,WUHU21623XXSP,2013-03-08 17:08:00,
2013-03-08 11:13:00,57.9,34.3,30.33,SE,135,2.9,3.1,41,0.00,,,0.00,WUHU21623XXSP,2013-03-08 17:13:00,
2013-03-08 11:18:00,58.5,34.2,30.33,NNE,22,0.7,2.9,40,0.00,,,0.00,WUHU21623XXSP,2013-03-08 17:18:00,
2013-03-08 11:23:00,58.6,33.7,30.33,ESE,112,6.3,6.3,39,0.00,,,0.00,WUHU21623XXSP,2013-03-08 17:23:00,
2013-03-08 11:28:00,58.8,33.1,30.33,SE,135,0.0,6.3,38,0.00,,,0.00,WUHU21623XXSP,2013-03-08 17:28:00,
2013-03-08 11:33:00,59.0,33.3,30.33,NE,45,0.0,2.9,38,0.00,,,0.00,WUHU21623XXSP,2013-03-08 17:33:00,
2013-03-08 11:38:00,59.4,33.6,30.33,ESE,112,5.8,5.8,38,0.00,,,0.00,WUHU21623XXSP,2013-03-08 17:38:00,
2013-03-08 11:43:00,60.3,33.7,30.33,ESE,112,3.8,6.9,37,0.00,,,0.00,WUHU21623XXSP,2013-03-08 17:43:00,
2013-03-08 11:48:00,60.4,33.1,30.33,East,90,3.8,6.9,36,0.00,,,0.00,WUHU21623XXSP,2013-03-08 17:48:00,
2013-03-08 11:53:00,61.2,33.0,30.32,SE,135,3.8,5.4,35,0.00,,,0.00,WUHU21623XXSP,2013-03-08 17:53:00,
2013-03-08 11:58:00,61.2,33.0,30.32,ESE,112,1.1,5.4,35,0.00,,,0.00,WUHU21623XXSP,2013-03-08 17:58:00,
2013-03-08 12:03:00,61.5,32.6,30.31,ESE,112,2.0,3.8,34,0.00,,,0.00,WUHU21623XXSP,2013-03-08 18:03:00,
2013-03-08 12:08:00,61.7,31.4,30.31,ESE,112,2.2,2.9,32,0.00,,,0.00,WUHU21623XXSP,2013-03-08 18:08:00,
2013-03-08 12:13:00,62.1,32.4,30.30,ENE,67,3.8,3.8,33,0.00,,,0.00,WUHU21623XXSP,2013-03-08 18:13:00,
2013-03-08 12:19:00,62.8,32.6,30.30,ESE,112,4.3,4.3,33,0.00,,,0.00,WUHU21623XXSP,2013-03-08 18:19:00,
2013-03-08 12:24:00,63.5,33.7,30.29,SSE,157,0.0,4.3,33,0.00,,,0.00,WUHU21623XXSP,2013-03-08 18:24:00,
2013-03-08 12:29:00,64.0,33.5,30.28,East,90,0.0,6.5,32,0.00,,,0.00,WUHU21623XXSP,2013-03-08 18:29:00,
2013-03-08 12:34:00,64.8,33.1,30.28,SE,135,2.9,6.5,31,0.00,,,0.00,WUHU21623XXSP,2013-03-08 18:34:00,
2013-03-08 12:39:00,65.1,33.0,30.28,NE,45,0.0,2.9,30,0.00,,,0.00,WUHU21623XXSP,2013-03-08 18:39:00,
2013-03-08 12:44:00,64.9,31.8,30.28,ESE,112,0.0,5.8,29,0.00,,,0.00,WUHU21623XXSP,2013-03-08 18:44:00,
2013-03-08 12:49:00,64.8,31.7,30.28,East,90,1.6,7.8,29,0.00,,,0.00,WUHU21623XXSP,2013-03-08 18:49:00,
2013-03-08 12:54:00,64.9,31.8,30.27,NNE,22,3.8,7.8,29,0.00,,,0.00,WUHU21623XXSP,2013-03-08 18:54:00,
2013-03-08 12:59:00,64.9,30.8,30.27,ENE,67,2.0,3.8,28,0.00,,,0.00,WUHU21623XXSP,2013-03-08 18:59:00,
2013-03-08 13:04:00,65.3,31.2,30.26,ESE,112,8.5,8.5,28,0.00,,,0.00,WUHU21623XXSP,2013-03-08 19:04:00,
2013-03-08 13:09:00,65.7,31.5,30.27,ENE,67,0.0,8.5,28,0.00,,,0.00,WUHU21623XXSP,2013-03-08 19:09:00,
2013-03-08 13:14:00,66.0,30.8,30.26,North,0,0.0,0.0,28,0.00,,,0.00,WUHU21623XXSP,2013-03-08 19:14:00,
2013-03-08 13:19:00,66.4,32.1,30.25,NE,45,1.3,1.3,28,0.00,,,0.00,WUHU21623XXSP,2013-03-08 19:19:00,
2013-03-08 13:24:00,67.1,32.3,30.25,NE,45,1.3,1.3,28,0.00,,,0.00,WUHU21623XXSP,2013-03-08 19:24:00,
2013-03-08 13:29:00,67.6,30.2,30.25,ESE,112,1.1,2.9,25,0.00,,,0.00,WUHU21623XXSP,2013-03-08 19:29:00,
2013-03-08 13:34:00,68.2,31.6,30.25,SSE,157,3.6,3.6,26,0.00,,,0.00,WUHU21623XXSP,2013-03-08 19:34:00,
2013-03-08 13:39:00,68.4,31.8,30.24,ESE,112,6.5,6.5,26,0.00,,,0.00,WUHU21623XXSP,2013-03-08 19:39:00,
2013-03-08 13:44:00,68.7,30.1,30.24,North,0,3.6,6.5,24,0.00,,,0.00,WUHU21623XXSP,2013-03-08 19:44:00,
2013-03-08 13:49:00,68.4,29.8,30.24,NE,45,4.5,4.5,24,0.00,,,0.00,WUHU21623XXSP,2013-03-08 19:49:00,
2013-03-08 13:54:00,68.7,31.1,30.24,East,90,0.0,6.0,25,0.00,,,0.00,WUHU21623XXSP,2013-03-08 19:54:00,
2013-03-08 13:59:00,69.4,28.7,30.25,SSE,157,2.5,6.0,22,0.00,,,0.00,WUHU21623XXSP,2013-03-08 19:59:00,
2013-03-08 14:04:00,69.4,25.3,30.24,South,180,0.0,3.4,19,0.00,,,0.00,WUHU21623XXSP,2013-03-08 20:04:00,
2013-03-08 14:09:00,69.1,25.0,30.24,ESE,112,4.0,4.0,19,0.00,,,0.00,WUHU21623XXSP,2013-03-08 20:09:00,
2013-03-08 14:14:00,69.3,25.2,30.25,SE,135,1.3,4.0,19,0.00,,,0.00,WUHU21623XXSP,2013-03-08 20:14:00,
2013-03-08 14:19:00,69.4,25.3,30.24,SSW,202,0.0,4.0,19,0.00,,,0.00,WUHU21623XXSP,2013-03-08 20:19:00,
2013-03-08 14:24:00,69.4,25.3,30.24,ENE,67,0.0,4.0,19,0.00,,,0.00,WUHU21623XXSP,2013-03-08 20:24:00,
2013-03-08 14:29:00,70.0,25.8,30.24,East,90,0.0,3.4,19,0.00,,,0.00,WUHU21623XXSP,2013-03-08 20:29:00,
2013-03-08 14:34:00,70.5,26.2,30.25,SE,135,4.3,6.5,19,0.00,,,0.00,WUHU21623XXSP,2013-03-08 20:34:00,
2013-03-08 14:39:00,70.5,26.2,30.24,SSE,157,0.0,6.5,19,0.00,,,0.00,WUHU21623XXSP,2013-03-08 20:39:00,
2013-03-08 14:44:00,69.8,25.6,30.24,West,270,0.0,0.9,19,0.00,,,0.00,WUHU21623XXSP,2013-03-08 20:44:00,
2013-03-08 14:49:00,69.1,25.0,30.24,SE,135,3.6,3.6,19,0.00,,,0.00,WUHU21623XXSP,2013-03-08 20:49:00,
2013-03-08 14:54:00,69.3,25.2,30.24,ESE,112,3.4,5.4,19,0.00,,,0.00,WUHU21623XXSP,2013-03-08 20:54:00,
2013-03-08 14:59:00,70.0,25.8,30.24,SE,135,4.3,5.4,19,0.00,,,0.00,WUHU21623XXSP,2013-03-08 20:59:00,
2013-03-08 15:04:00,70.3,26.0,30.24,SE,135,0.0,4.3,19,0.00,,,0.00,WUHU21623XXSP,2013-03-08 21:04:00,
2013-03-08 15:09:00,70.2,26.0,30.23,WNW,292,2.2,2.2,19,0.00,,,0.00,WUHU21623XXSP,2013-03-08 21:09:00,
2013-03-08 15:14:00,68.9,24.9,30.23,SE,135,1.8,2.2,19,0.00,,,0.00,WUHU21623XXSP,2013-03-08 21:14:00,
2013-03-08 15:19:00,69.1,25.0,30.24,ESE,112,0.9,3.8,19,0.00,,,0.00,WUHU21623XXSP,2013-03-08 21:19:00,
2013-03-08 15:24:00,70.2,26.0,30.23,ESE,112,0.0,4.0,19,0.00,,,0.00,WUHU21623XXSP,2013-03-08 21:24:00,
2013-03-08 15:29:00,70.5,26.2,30.23,NNW,337,2.0,4.0,19,0.00,,,0.00,WUHU21623XXSP,2013-03-08 21:29:00,
2013-03-08 15:34:00,69.8,25.6,30.23,NNW,337,2.2,2.2,19,0.00,,,0.00,WUHU21623XXSP,2013-03-08 21:34:00,
2013-03-08 15:39:00,69.3,25.2,30.22,ESE,112,0.0,3.1,19,0.00,,,0.00,WUHU21623XXSP,2013-03-08 21:39:00,
2013-03-08 15:44:00,69.1,25.0,30.22,ESE,112,0.0,3.1,19,0.00,,,0.00,WUHU21623XXSP,2013-03-08 21:44:00,
2013-03-08 15:49:00,69.3,25.2,30.21,East,90,0.0,2.2,19,0.00,,,0.00,WUHU21623XXSP,2013-03-08 21:49:00,
2013-03-08 15:54:00,68.7,24.7,30.21,ESE,112,1.8,1.8,19,0.00,,,0.00,WUHU21623XXSP,2013-03-08 21:54:00,
2013-03-08 15:59:00,68.7,24.7,30.21,SE,135,1.1,1.8,19,0.00,,,0.00,WUHU21623XXSP,2013-03-08 21:59:00,
2013-03-08 16:04:00,68.7,24.7,30.22,SE,135,0.0,1.1,19,0.00,,,0.00,WUHU21623XXSP,2013-03-08 22:04:00,
2013-03-08 16:09:00,68.7,24.7,30.22,SE,135,0.0,0.0,19,0.00,,,0.00,WUHU21623XXSP,2013-03-08 22:09:00,
2013-03-08 16:14:00,68.9,24.9,30.22,SE,135,0.0,0.0,19,0.00,,,0.00,WUHU21623XXSP,2013-03-08 22:14:00,
2013-03-08 16:19:00,68.7,24.7,30.22,SSE,157,0.0,1.6,19,0.00,,,0.00,WUHU21623XXSP,2013-03-08 22:19:00,
2013-03-08 16:24:00,68.4,24.5,30.22,SSE,157,0.0,1.6,19,0.00,,,0.00,WUHU21623XXSP,2013-03-08 22:24:00,
2013-03-08 16:29:00,68.0,24.1,30.22,SSE,157,0.0,0.0,19,0.00,,,0.00,WUHU21623XXSP,2013-03-08 22:29:00,
2013-03-08 16:34:00,67.3,23.6,30.22,SSE,157,0.0,0.0,19,0.00,,,0.00,WUHU21623XXSP,2013-03-08 22:34:00,
2013-03-08 16:39:00,66.4,24.1,30.21,SSE,157,0.0,0.0,20,0.00,,,0.00,WUHU21623XXSP,2013-03-08 22:39:00,
2013-03-08 16:44:00,65.8,24.6,30.21,SSE,157,0.0,0.0,21,0.00,,,0.00,WUHU21623XXSP,2013-03-08 22:44:00,
2013-03-08 16:49:00,65.7,25.5,30.20,SSE,157,0.0,0.0,22,0.00,,,0.00,WUHU21623XXSP,2013-03-08 22:49:00,
2013-03-08 16:54:00,64.9,25.9,30.20,SSE,157,0.0,0.0,23,0.00,,,0.00,WUHU21623XXSP,2013-03-08 22:54:00,
2013-03-08 16:59:00,64.6,25.6,30.20,SSE,157,0.0,0.0,23,0.00,,,0.00,WUHU21623XXSP,2013-03-08 22:59:00,
2013-03-08 17:04:00,64.0,25.1,30.20,SSE,157,0.0,0.0,23,0.00,,,0.00,WUHU21623XXSP,2013-03-08 23:04:00,
2013-03-08 17:09:00,63.5,24.7,30.21,SSE,157,0.0,0.0,23,0.00,,,0.00,WUHU21623XXSP,2013-03-08 23:09:00,
2013-03-08 17:14:00,63.0,24.2,30.21,SSE,157,0.0,0.0,23,0.00,,,0.00,WUHU21623XXSP,2013-03-08 23:14:00,
2013-03-08 17:19:00,62.8,25.1,30.21,SSE,157,0.0,0.0,24,0.00,,,0.00,WUHU21623XXSP,2013-03-08 23:19:00,
2013-03-08 17:24:00,62.2,25.6,30.21,SSE,157,0.0,0.0,25,0.00,,,0.00,WUHU21623XXSP,2013-03-08 23:24:00,
2013-03-08 17:29:00,62.1,25.4,30.21,SSE,157,0.0,0.0,25,0.00,,,0.00,WUHU21623XXSP,2013-03-08 23:29:00,
2013-03-08 17:34:00,61.5,25.0,30.21,SSE,157,0.0,0.0,26,0.00,,,0.00,WUHU21623XXSP,2013-03-08 23:34:00,
2013-03-08 17:39:00,61.3,25.8,30.20,SSE,157,0.0,0.0,26,0.00,,,0.00,WUHU21623XXSP,2013-03-08 23:39:00,
2013-03-08 17:44:00,61.0,25.4,30.20,SSE,157,0.0,0.0,26,0.00,,,0.00,WUHU21623XXSP,2013-03-08 23:44:00,
2013-03-08 17:49:00,60.4,26.0,30.20,SSE,157,0.0,0.0,27,0.00,,,0.00,WUHU21623XXSP,2013-03-08 23:49:00,
2013-03-08 17:54:00,59.9,25.5,30.19,SSE,157,0.0,0.0,27,0.00,,,0.00,WUHU21623XXSP,2013-03-08 23:54:00,
2013-03-08 17:59:00,59.9,24.5,30.19,SSE,157,0.0,0.0,26,0.00,,,0.00,WUHU21623XXSP,2013-03-08 23:59:00,
2013-03-08 18:04:00,59.2,24.9,30.19,SSE,157,0.0,0.0,27,0.00,,,0.00,WUHU21623XXSP,2013-03-09 00:04:00,
2013-03-08 18:09:00,58.6,25.4,30.18,SSE,157,0.0,0.0,28,0.00,,,0.00,WUHU21623XXSP,2013-03-09 00:09:00,
2013-03-08 18:14:00,58.1,24.9,30.18,SSE,157,0.0,0.0,28,0.00,,,0.00,WUHU21623XXSP,2013-03-09 00:14:00,
2013-03-08 18:19:00,57.6,25.4,30.18,SSE,157,0.0,0.0,29,0.00,,,0.00,WUHU21623XXSP,2013-03-09 00:19:00,
2013-03-08 18:24:00,57.4,25.3,30.18,SSE,157,0.0,0.0,29,0.00,,,0.00,WUHU21623XXSP,2013-03-09 00:24:00,
2013-03-08 18:29:00,57.2,25.1,30.18,SSE,157,0.0,0.0,29,0.00,,,0.00,WUHU21623XXSP,2013-03-09 00:29:00,
2013-03-08 18:34:00,56.7,24.6,30.18,SSE,157,0.0,0.0,29,0.00,,,0.00,WUHU21623XXSP,2013-03-09 00:34:00,
2013-03-08 18:39:00,56.7,24.6,30.18,SSE,157,0.0,0.0,29,0.00,,,0.00,WUHU21623XXSP,2013-03-09 00:39:00,
2013-03-08 18:44:00,56.1,24.1,30.18,SSE,157,0.0,0.0,29,0.00,,,0.00,WUHU21623XXSP,2013-03-09 00:44:00,
2013-03-08 18:49:00,55.9,24.9,30.18,SSE,157,0.0,0.0,30,0.00,,,0.00,WUHU21623XXSP,2013-03-09 00:49:00,
2013-03-08 18:54:00,55.8,24.8,30.19,SSE,157,0.0,0.0,30,0.00,,,0.00,WUHU21623XXSP,2013-03-09 00:54:00,
2013-03-08 18:59:00,55.8,24.8,30.19,SSE,157,0.0,0.0,30,0.00,,,0.00,WUHU21623XXSP,2013-03-09 00:59:00,
2013-03-08 19:04:00,55.4,24.4,30.19,SSE,157,0.0,0.0,30,0.00,,,0.00,WUHU21623XXSP,2013-03-09 01:04:00,
2013-03-08 19:09:00,55.2,24.3,30.19,SSE,157,0.0,0.0,30,0.00,,,0.00,WUHU21623XXSP,2013-03-09 01:09:00,
2013-03-08 19:14:00,55.0,24.2,30.20,SSE,157,0.0,0.0,31,0.00,,,0.00,WUHU21623XXSP,2013-03-09 01:14:00,
2013-03-08 19:17:00,54.9,24.6,30.19,SSE,158,0.0,0.0,31,0.00,,,0.00,WUHU21623XXSP,2013-03-09 01:17:00,
2013-03-08 19:19:00,54.9,24.7,30.19,SSE,157,0.0,0.0,31,0.00,,,0.00,WUHU21623XXSP,2013-03-09 01:19:00,
2013-03-08 19:24:00,54.5,24.4,30.19,SSE,157,0.0,0.0,31,0.00,,,0.00,WUHU21623XXSP,2013-03-09 01:24:00,
2013-03-08 19:29:00,54.5,24.4,30.19,SSE,157,0.0,0.0,31,0.00,,,0.00,WUHU21623XXSP,2013-03-09 01:29:00,
2013-03-08 19:34:00,54.1,25.5,30.20,SSE,157,0.0,0.0,33,0.00,,,0.00,WUHU21623XXSP,2013-03-09 01:34:00,
2013-03-08 19:39:00,54.0,25.3,30.20,SSE,157,0.0,0.0,33,0.00,,,0.00,WUHU21623XXSP,2013-03-09 01:39:00,
2013-03-08 19:44:00,53.8,24.5,30.20,SSE,157,0.0,0.0,32,0.00,,,0.00,WUHU21623XXSP,2013-03-09 01:44:00,
2013-03-08 19:49:00,53.8,24.5,30.20,SSE,157,0.0,0.0,32,0.00,,,0.00,WUHU21623XXSP,2013-03-09 01:49:00,
2013-03-08 19:54:00,53.8,24.5,30.20,SSE,157,0.0,0.0,32,0.00,,,0.00,WUHU21623XXSP,2013-03-09 01:54:00,
2013-03-08 19:59:00,53.8,24.5,30.20,SSE,157,0.0,0.0,32,0.00,,,0.00,WUHU21623XXSP,2013-03-09 01:59:00,
2013-03-08 20:04:00,53.6,24.5,30.20,SSE,157,0.0,0.0,32,0.00,,,0.00,WUHU21623XXSP,2013-03-09 02:04:00,
2013-03-08 20:09:00,53.6,25.1,30.20,SE,135,0.0,2.5,33,0.00,,,0.00,WUHU21623XXSP,2013-03-09 02:09:00,
2013-03-08 20:14:00,53.6,25.1,30.20,SE,135,0.0,2.5,33,0.00,,,0.00,WUHU21623XXSP,2013-03-09 02:14:00,
2013-03-08 20:17:00,53.2,24.6,30.19,SE,135,0.0,0.0,33,0.00,,,0.00,WUHU21623XXSP,2013-03-09 02:17:00,
2013-03-08 20:19:00,53.2,25.4,30.20,SE,135,0.0,0.0,34,0.00,,,0.00,WUHU21623XXSP,2013-03-09 02:19:00,
2013-03-08 20:24:00,53.2,25.4,30.20,SE,135,0.0,0.0,34,0.00,,,0.00,WUHU21623XXSP,2013-03-09 02:24:00,
2013-03-08 20:29:00,53.1,25.3,30.20,SE,135,0.0,0.0,34,0.00,,,0.00,WUHU21623XXSP,2013-03-09 02:29:00,
2013-03-08 20:34:00,53.1,25.3,30.20,SE,135,3.1,3.1,34,0.00,,,0.00,WUHU21623XXSP,2013-03-09 02:34:00,
2013-03-08 20:39:00,53.2,25.4,30.20,SE,135,0.0,3.1,34,0.00,,,0.00,WUHU21623XXSP,2013-03-09 02:39:00,
2013-03-08 20:44:00,53.2,25.4,30.20,SE,135,0.0,1.6,34,0.00,,,0.00,WUHU21623XXSP,2013-03-09 02:44:00,
2013-03-08 20:49:00,53.4,24.9,30.20,SE,135,0.0,0.0,33,0.00,,,0.00,WUHU21623XXSP,2013-03-09 02:49:00,
2013-03-08 20:54:00,53.4,25.6,30.20,SE,135,3.6,3.6,34,0.00,,,0.00,WUHU21623XXSP,2013-03-09 02:54:00,
2013-03-08 20:59:00,53.4,25.6,30.21,ESE,112,2.5,3.6,34,0.00,,,0.00,WUHU21623XXSP,2013-03-09 02:59:00,
2013-03-08 21:04:00,53.2,25.4,30.20,ESE,112,2.2,2.7,34,0.00,,,0.00,WUHU21623XXSP,2013-03-09 03:04:00,
2013-03-08 21:09:00,53.2,25.4,30.20,SE,135,4.7,4.7,34,0.00,,,0.00,WUHU21623XXSP,2013-03-09 03:09:00,
2013-03-08 21:14:00,53.1,25.3,30.20,ESE,112,0.0,4.7,34,0.00,,,0.00,WUHU21623XXSP,2013-03-09 03:14:00,
2013-03-08 21:17:00,53.1,25.2,30.19,ESE,113,0.0,0.0,34,0.00,,,0.00,WUHU21623XXSP,2013-03-09 03:17:00,
2013-03-08 21:19:00,53.1,25.3,30.20,ESE,112,0.0,4.7,34,0.00,,,0.00,WUHU21623XXSP,2013-03-09 03:19:00,
2013-03-08 21:24:00,52.9,25.1,30.19,ESE,112,1.3,1.3,34,0.00,,,0.00,WUHU21623XXSP,2013-03-09 03:24:00,
2013-03-08 21:29:00,52.5,24.8,30.19,ESE,112,3.4,3.4,34,0.00,,,0.00,WUHU21623XXSP,2013-03-09 03:29:00,
2013-03-08 21:34:00,52.3,24.6,30.19,SE,135,0.0,3.4,34,0.00,,,0.00,WUHU21623XXSP,2013-03-09 03:34:00,
2013-03-08 21:39:00,52.2,24.4,30.19,SE,135,0.0,3.4,34,0.00,,,0.00,WUHU21623XXSP,2013-03-09 03:39:00,
2013-03-08 21:44:00,52.0,24.3,30.19,SE,135,0.0,0.0,34,0.00,,,0.00,WUHU21623XXSP,2013-03-09 03:44:00,
2013-03-08 21:49:00,51.8,24.1,30.19,SE,135,0.9,0.9,34,0.00,,,0.00,WUHU21623XXSP,2013-03-09 03:49:00,
2013-03-08 21:54:00,51.6,24.0,30.19,SE,135,0.0,0.9,34,0.00,,,0.00,WUHU21623XXSP,2013-03-09 03:54:00,
2013-03-08 21:59:00,51.3,23.6,30.19,SE,135,0.0,0.9,34,0.00,,,0.00,WUHU21623XXSP,2013-03-09 03:59:00,
2013-03-08 22:04:00,51.3,23.6,30.19,SE,135,0.0,0.0,34,0.00,,,0.00,WUHU21623XXSP,2013-03-09 04:04:00,
2013-03-08 22:09:00,51.1,23.5,30.19,SE,135,0.0,0.0,34,0.00,,,0.00,WUHU21623XXSP,2013-03-09 04:09:00,
2013-03-08 22:14:00,51.1,23.5,30.19,SE,135,0.0,0.0,34,0.00,,,0.00,WUHU21623XXSP,2013-03-09 04:14:00,
2013-03-08 22:17:00,50.7,23.1,30.19,SE,135,0.0,0.0,34,0.00,,,0.00,WUHU21623XXSP,2013-03-09 04:17:00,
2013-03-08 22:19:00,50.7,23.1,30.19,SE,135,0.0,0.0,34,0.00,,,0.00,WUHU21623XXSP,2013-03-09 04:19:00,
2013-03-08 22:24:00,50.5,23.7,30.20,SE,135,0.0,0.0,35,0.00,,,0.00,WUHU21623XXSP,2013-03-09 04:24:00,
2013-03-08 22:29:00,50.4,24.2,30.20,SE,135,0.0,0.0,36,0.00,,,0.00,WUHU21623XXSP,2013-03-09 04:29:00,
2013-03-08 22:34:00,50.4,24.2,30.19,SE,135,0.0,0.0,36,0.00,,,0.00,WUHU21623XXSP,2013-03-09 04:34:00,
2013-03-08 22:39:00,50.2,24.0,30.19,SE,135,0.0,0.0,36,0.00,,,0.00,WUHU21623XXSP,2013-03-09 04:39:00,
2013-03-08 22:44:00,50.2,24.0,30.19,SE,135,0.0,0.0,36,0.00,,,0.00,WUHU21623XXSP,2013-03-09 04:44:00,
2013-03-08 22:49:00,50.2,24.0,30.19,SE,135,0.0,0.0,36,0.00,,,0.00,WUHU21623XXSP,2013-03-09 04:49:00,
2013-03-08 22:54:00,50.2,24.0,30.19,SE,135,0.0,0.0,36,0.00,,,0.00,WUHU21623XXSP,2013-03-09 04:54:00,
2013-03-08 22:59:00,49.6,23.5,30.19,SE,135,0.0,0.0,36,0.00,,,0.00,WUHU21623XXSP,2013-03-09 04:59:00,
2013-03-08 23:00:00,49.6,23.5,30.19,SE,135,0.0,0.0,36,0.00,,,0.00,WUHU21623XXSP,2013-03-09 05:00:00,
2013-03-08 23:05:00,49.1,23.1,30.18,SE,135,0.0,0.0,36,0.00,,,0.00,WUHU21623XXSP,2013-03-09 05:05:00,
2013-03-08 23:10:00,48.7,22.8,30.18,SE,135,0.0,0.0,36,0.00,,,0.00,WUHU21623XXSP,2013-03-09 05:10:00,
2013-03-08 23:15:00,48.6,22.6,30.18,SE,135,0.0,0.0,36,0.00,,,0.00,WUHU21623XXSP,2013-03-09 05:15:00,
2013-03-08 23:17:00,48.2,22.3,30.17,SE,135,0.0,0.0,36,0.00,,,0.00,WUHU21623XXSP,2013-03-09 05:17:00,
2013-03-08 23:20:00,47.8,22.7,30.18,SE,135,2.2,2.9,37,0.00,,,0.00,WUHU21623XXSP,2013-03-09 05:20:00,
2013-03-08 23:25:00,47.8,22.7,30.17,SE,135,2.0,2.9,37,0.00,,,0.00,WUHU21623XXSP,2013-03-09 05:25:00,
2013-03-08 23:30:00,47.8,23.3,30.16,SE,135,0.0,2.2,38,0.00,,,0.00,WUHU21623XXSP,2013-03-09 05:30:00,
2013-03-08 23:35:00,47.8,23.3,30.17,SE,135,0.0,0.0,38,0.00,,,0.00,WUHU21623XXSP,2013-03-09 05:35:00,
2013-03-08 23:40:00,47.8,23.3,30.17,SE,135,0.0,0.0,38,0.00,,,0.00,WUHU21623XXSP,2013-03-09 05:40:00,
2013-03-08 23:45:00,48.2,23.6,30.16,SE,135,0.0,0.0,38,0.00,,,0.00,WUHU21623XXSP,2013-03-09 05:45:00,
2013-03-08 23:50:00,48.4,24.5,30.17,SE,135,0.0,0.0,39,0.00,,,0.00,WUHU21623XXSP,2013-03-09 05:50:00,
2013-03-08 23:55:00,48.4,23.8,30.17,SE,135,0.0,0.0,38,0.00,,,0.00,WUHU21623XXSP,2013-03-09 05:55:00,